[Iaude] MPEC A119: 2024 AX2 [a=1.05,e=0.34,i=22.0,H=22.9]
    mpec at marsden.cfa.harvard.edu 
    mpec at marsden.cfa.harvard.edu
       
    Wed Jan 10 21:24:13 EST 2024
    
    
  
M.P.E.C. 2024-A119                             Issued 2024 January 11, 02:22 UT
     The Minor Planet Electronic Circulars contain information on unusual
         minor planets, routine data on comets and natural satellites,
         and occasional editorial announcements.  They are published
    on behalf of Division F of the International Astronomical Union by the
          Minor Planet Center, Smithsonian Astrophysical Observatory,
                          Cambridge, MA 02138, U.S.A.
			  
             Prepared using the Tamkin Foundation Computer Network
                              MPC at CFA.HARVARD.EDU
            URL https://www.minorplanetcenter.net/    ISSN 1523-6714
                                    2024 AX2                                    
Observations:
     K24A02X  C2024 01 03.57617708 34 30.541+32 12 53.33         21.48GVEA119F52
     K24A02X  C2024 01 03.58846808 34 24.286+32 12 07.96         21.33GVEA119F52
     K24A02X  C2024 01 03.60075008 34 18.106+32 11 22.25         20.99GVEA119F52
     K24A02X*KC2024 01 05.93087 08 15 52.41 +29 45 19.6          19.8 GXEA119L51
     K24A02X KC2024 01 05.93201 08 15 51.87 +29 45 15.9                XEA119L51
     K24A02X KC2024 01 05.93321 08 15 51.29 +29 45 11.2          19.9 GXEA119L51
     K24A02X KC2024 01 05.96211 08 15 37.60 +29 43 21.1          20.6 GXEA119L51
     K24A02X KC2024 01 05.96520 08 15 36.16 +29 43 08.2          21.0 GXEA119L51
     K24A02X KC2024 01 05.96825 08 15 34.75 +29 42 57.4          20.7 GXEA119L51
     K24A02X KC2024 01 09.83594 07 48 03.40 +25 34 26.7          20.5 GXEA119L51
     K24A02X KC2024 01 09.84200 07 48 00.92 +25 34 03.0          20.2 GXEA119L51
     K24A02X KC2024 01 09.84802 07 47 58.43 +25 33 40.1          20.8 GXEA119L51
     K24A02X  C2024 01 10.23157007 45 28.918+25 09 18.32         20.8 GVEA119654
     K24A02X  C2024 01 10.23958907 45 25.742+25 08 48.48         20.8 GVEA119654
     K24A02X 1C2024 01 10.85255 07 41 31.16 +24 29 48.0          19.7 VXEA119033
     K24A02X 1C2024 01 10.85342 07 41 30.81 +24 29 44.7          19.9 VXEA119033
     K24A02X 1C2024 01 10.85432 07 41 30.50 +24 29 41.9          19.6 VXEA119033
     K24A02X 1C2024 01 10.85536 07 41 30.06 +24 29 37.6          19.5 VXEA119033
     K24A02X KC2024 01 10.90006 07 41 12.51 +24 26 52.8          20.4 VqEA119L04
     K24A02X KC2024 01 10.90583 07 41 10.29 +24 26 31.3          20.6 VqEA119L04
     K24A02X hC2024 01 11.02971607 40 22.67 +24 18 44.2          20.6 GVEA119L01
     K24A02X hC2024 01 11.03139807 40 22.05 +24 18 36.9          20.4 GVEA119L01
     K24A02X hC2024 01 11.03308107 40 21.43 +24 18 31.8          20.5 GVEA119L01
     K24A02X hC2024 01 11.03476507 40 20.75 +24 18 25.5          20.4 GVEA119L01
Observer details:
033 Karl Schwarzschild Observatory, Tautenburg.  Observers S. Melnikov, C.
    Hogner, F. Ludwig, M. Hartmann, B. Stecklum.  Measurer B. Stecklum.
    1.34-m f/3 Schmidt + CCD.
654 Table Mountain Observatory, Wrightwood-PHMC.  Observers N. Evans, P. Choi,
    N. Saini, C. Zhai, R. Trahan, M. Shao.  1.0-m Reflector + CCD.
F52 Pan-STARRS 2, Haleakala.  Observers J. Herman, T. Lowe, P. Minguez, A.
    Schultz, I. Smith.  Measurers K. Chambers, T. de Boer, J. Fairlamb, H.
    Gao, M. Huber, C.-C. Lin, E. Magnier, Y. Ramanjooloo, R. Wainscoat, R.
    Weryk.  1.8-m Ritchey-Chretien + CCD.
L01 Visnjan Observatory, Tican.  Observers K. Korlevic, L. Poropat.  Measurer
    K. Korlevic.  1.0-m f/2.9 reflector + CCD.
L04 ROASTERR-1 Observatory, Cluj-Napoca.  Observer L. Hudin.  0.3-m f/5
    reflector + CCD.
L51 MARGO, Nauchnyi.  Observer G. Borisov.  0.50-m f/1.9 reflector + CCD.
Orbital elements:
2024 AX2                                                 Earth MOID = 0.1700 AU
Epoch 2023 Sept. 13.0 TT = JDT 2460200.5                Veres                   
M 351.00685              (2000.0)            P               Q                  
n   0.91332555     Peri.   44.39934     +0.86798932     +0.35462170             
a   1.0520886      Node   291.84203     -0.49124612     +0.71554261             
e   0.3397850      Incl.   21.99353     +0.07260705     +0.60186562             
P   1.08           H   22.93          G   0.15           U   8                  
Residuals in seconds of arc
240103 F52  0.0   0.2-    240105 L51  0.6+  0.1-    240110 033  0.7+  0.5+
240103 F52  0.2-  0.2+    240109 L51  0.7+  0.4+    240110 033  0.2+  0.1+
240103 F52  0.4+  0.3+    240109 L51  0.4+  0.3-    240110 L04  0.5-  0.5-
240105 L51  0.7+  0.7-    240109 L51  0.3-  0.3-    240110 L04  0.3-  0.2-
240105 L51  0.6+  0.0     240110 654  0.2-  0.2-    240111 L01  0.3-  0.1+
240105 L51  0.5+  0.2-    240110 654  0.1+  0.2+    240111 L01  0.1+  0.8-
240105 L51  0.1-  0.1+    240110 033  0.4+  0.0     240111 L01  0.4+  0.5+
240105 L51  0.2+  1.0-    240110 033  0.2+  0.0     240111 L01  0.0   0.6+
Ephemeris:
2024 AX2                 a,e,i = 1.05, 0.34, 22                  q = 0.6946
Date    TT    R. A. (2000) Decl.     Delta      r    Elong.  Phase     V
2023 12 12    11 36 31.5 +44 17 59   0.2585  1.0686   102.0    64.3    22.4
...
2023 12 27    09 40 19.6 +38 49 40   0.2185  1.1485   135.1    37.2    21.4
...
2024 01 04    08 31 05.1 +31 46 50   0.2183  1.1874   157.0    18.9    21.0
...
2024 01 10    07 46 58.0 +25 24 15   0.2324  1.2146   173.4     5.4    20.6
2024 01 11    07 40 34.7 +24 20 53   0.2360  1.2189   175.9     3.3    20.5
2024 01 12    07 34 28.9 +23 18 27   0.2399  1.2233   178.2     1.4    20.5
...
2024 01 18    07 03 53.1 +17 35 23   0.2697  1.2482   167.2    10.0    21.2
...
2024 01 26    06 37 01.2 +11 46 29   0.3234  1.2788   151.8    21.3    22.1
...
2024 02 10    06 15 24.6 +05 39 37   0.4512  1.3276   131.1    34.1    23.2
M. P. C. Staff               (C) Copyright 2024 MPC           M.P.E.C. 2024-A119
    
    
More information about the Iaude
mailing list